N23SM LIMJ-LEMD

Flight info

Callsign N23SM
Flight time 1h 47m
Altitude 36000
Route LAGEN DCT GEKBA DCT VAMTU DCT KOLON DCT GANGU DCT PADKO DCT DIVKO DCT NILDU DCT NENDA DCT BCN DCT ANTON DCT XIKEN DCT OSLAP N975 DISVU/N0491F310 N975 ADUXO
Aircraft C700/M-SBDGHM1RWXY/LB2

Departure

Time 2026-05-04 15:55
Airport Genoa Cristoforo Colombo Airport (LIMJ)

Arrival

Time 2026-05-04 17:43
Airport Adolfo Suárez Madrid–Barajas Airport (LEMD)
Time Latitude Longitude Altitude Speed Heading
2026-05-04 15:43 44.41706 8.85165 4 ft 0 kts 105°
2026-05-04 15:50 44.41709 8.85170 4 ft 1 kts 39°
2026-05-04 15:51 44.41713 8.85157 4 ft 4 kts 260°
2026-05-04 15:51 44.41688 8.85063 4 ft 17 kts 249°
2026-05-04 15:51 44.41600 8.84866 4 ft 30 kts 231°
2026-05-04 15:51 44.41505 8.84678 4 ft 0 kts 229°
2026-05-04 15:52 44.41498 8.84671 4 ft 6 kts 212°
2026-05-04 15:52 44.41416 8.84588 4 ft 23 kts 217°
2026-05-04 15:52 44.41319 8.84388 4 ft 25 kts 264°
2026-05-04 15:52 44.41363 8.84146 4 ft 27 kts 289°
2026-05-04 15:53 44.41412 8.83883 5 ft 29 kts 287°
2026-05-04 15:53 44.41470 8.83607 5 ft 30 kts 286°
2026-05-04 15:53 44.41523 8.83314 5 ft 32 kts 284°
2026-05-04 15:53 44.41582 8.83006 5 ft 33 kts 285°
2026-05-04 15:54 44.41641 8.82698 5 ft 31 kts 281°
2026-05-04 15:54 44.41639 8.82513 5 ft 15 kts 209°
2026-05-04 15:54 44.41532 8.82516 3 ft 16 kts 162°
2026-05-04 15:54 44.41515 8.82555 3 ft 8 kts 105°
2026-05-04 15:55 44.41426 8.83024 7 ft 99 kts 106°
2026-05-04 15:55 44.41163 8.84330 163 ft 171 kts 104°
2026-05-04 15:55 44.40819 8.86108 1124 ft 188 kts 106°
2026-05-04 15:55 44.40522 8.87924 2124 ft 197 kts 104°
2026-05-04 15:56 44.40126 8.89727 2683 ft 199 kts 125°
2026-05-04 15:56 44.38941 8.90538 4075 ft 196 kts 179°
2026-05-04 15:56 44.37609 8.90253 5866 ft 191 kts 184°
2026-05-04 15:56 44.36305 8.90105 7481 ft 188 kts 178°
2026-05-04 15:57 44.34993 8.90249 8942 ft 190 kts 168°
2026-05-04 15:57 44.33710 8.90791 10362 ft 196 kts 160°
2026-05-04 15:57 44.32417 8.91518 11680 ft 203 kts 160°
2026-05-04 15:57 44.31075 8.92272 12955 ft 213 kts 161°
2026-05-04 15:58 44.29673 8.93035 14192 ft 220 kts 162°
2026-05-04 15:58 44.28194 8.93585 15276 ft 222 kts 184°
2026-05-04 15:58 44.26749 8.92946 16481 ft 219 kts 212°
2026-05-04 15:58 44.25470 8.91759 17647 ft 223 kts 216°
2026-05-04 15:59 44.24194 8.90511 18777 ft 226 kts 216°
2026-05-04 15:59 44.22884 8.89258 19746 ft 231 kts 216°
2026-05-04 15:59 44.21538 8.87986 20656 ft 236 kts 216°
2026-05-04 15:59 44.20168 8.86692 21544 ft 241 kts 216°
2026-05-04 16:00 44.18769 8.85368 22433 ft 245 kts 216°
2026-05-04 16:00 44.17346 8.84025 23339 ft 249 kts 216°
2026-05-04 16:00 44.15972 8.82533 24135 ft 253 kts 226°
2026-05-04 16:00 44.14870 8.80623 24993 ft 252 kts 238°
2026-05-04 16:01 44.14095 8.78429 25707 ft 261 kts 249°
2026-05-04 16:01 44.13681 8.75828 25908 ft 291 kts 263°
2026-05-04 16:01 44.13773 8.72891 26220 ft 315 kts 277°
2026-05-04 16:01 44.14375 8.69945 27204 ft 319 kts 288°
2026-05-04 16:02 44.15420 8.67204 28137 ft 322 kts 291°
2026-05-04 16:02 44.15975 8.64237 28826 ft 323 kts 274°
2026-05-04 16:02 44.16847 8.57571 28945 ft 374 kts 278°
2026-05-04 16:03 44.17346 8.54005 29841 ft 375 kts 277°
2026-05-04 16:03 44.17802 8.50427 30648 ft 377 kts 276°
2026-05-04 16:03 44.18252 8.46852 31299 ft 381 kts 276°
2026-05-04 16:03 44.18735 8.43154 31935 ft 386 kts 277°
2026-05-04 16:04 44.19215 8.39510 32541 ft 389 kts 276°
2026-05-04 16:04 44.20183 8.32010 33939 ft 392 kts 276°
2026-05-04 16:04 44.20667 8.28276 34696 ft 389 kts 276°
2026-05-04 16:05 44.21143 8.24566 35208 ft 391 kts 276°
2026-05-04 16:05 44.21615 8.20853 35856 ft 388 kts 276°
2026-05-04 16:05 44.22580 8.13263 36101 ft 410 kts 276°
2026-05-04 16:06 44.23088 8.09285 36112 ft 423 kts 276°
2026-05-04 16:06 44.24488 7.98198 36104 ft 439 kts 276°
2026-05-04 16:07 44.24903 7.92642 36107 ft 432 kts 269°
2026-05-04 16:07 44.23631 7.80434 36106 ft 423 kts 251°
2026-05-04 16:08 44.22562 7.76602 36109 ft 424 kts 246°
2026-05-04 16:08 44.17562 7.66375 36103 ft 432 kts 228°
2026-05-04 16:09 44.13340 7.60605 36087 ft 414 kts 231°
2026-05-04 16:09 44.09640 7.54643 36082 ft 402 kts 231°
2026-05-04 16:10 44.05951 7.48767 36079 ft 406 kts 231°
2026-05-04 16:11 43.98487 7.36864 36059 ft 408 kts 231°
2026-05-04 16:12 43.87454 7.19366 36049 ft 404 kts 231°
2026-05-04 16:13 43.80028 7.07649 36042 ft 404 kts 231°
2026-05-04 16:14 43.72874 6.95906 36038 ft 395 kts 238°
2026-05-04 16:16 43.67218 6.78445 36051 ft 399 kts 247°
2026-05-04 16:17 43.62010 6.60840 36030 ft 394 kts 247°
2026-05-04 16:18 43.57846 6.46865 36032 ft 393 kts 247°
2026-05-04 16:19 43.52585 6.29317 36054 ft 399 kts 246°
2026-05-04 16:20 43.47299 6.11801 36041 ft 395 kts 246°
2026-05-04 16:22 43.41987 5.94321 36023 ft 399 kts 246°
2026-05-04 16:23 43.35544 5.73278 36003 ft 396 kts 245°
2026-05-04 16:25 43.29417 5.53422 35978 ft 401 kts 245°
2026-05-04 16:26 43.21826 5.29030 35989 ft 398 kts 245°
2026-05-04 16:28 43.16328 5.11506 35979 ft 399 kts 245°
2026-05-04 16:29 43.08641 4.87203 35954 ft 399 kts 244°
2026-05-04 16:30 43.04630 4.77280 35952 ft 399 kts 232°
2026-05-04 16:31 43.00768 4.71824 35940 ft 401 kts 223°
2026-05-04 16:32 42.88282 4.56757 35939 ft 397 kts 223°
2026-05-04 16:33 42.79897 4.46685 35936 ft 405 kts 223°
2026-05-04 16:34 42.73591 4.39137 35928 ft 399 kts 223°
2026-05-04 16:35 42.61005 4.24132 35920 ft 403 kts 223°
2026-05-04 16:36 42.54649 4.16585 35918 ft 407 kts 222°
2026-05-04 16:37 42.48323 4.09098 35908 ft 396 kts 223°
2026-05-04 16:38 42.39987 3.99259 35903 ft 401 kts 222°
2026-05-04 16:39 42.29486 3.86921 35899 ft 395 kts 222°
2026-05-04 16:40 42.22305 3.75763 35914 ft 403 kts 234°
2026-05-04 16:41 42.14205 3.60434 35908 ft 399 kts 234°
2026-05-04 16:43 42.06106 3.45168 35907 ft 403 kts 234°
2026-05-04 16:43 42.01204 3.35962 35908 ft 402 kts 234°
2026-05-04 16:45 41.91469 3.17766 35906 ft 397 kts 234°
2026-05-04 16:46 41.83354 3.02674 35918 ft 401 kts 233°
2026-05-04 16:47 41.76779 2.90506 35926 ft 403 kts 233°
2026-05-04 16:48 41.70271 2.78507 35924 ft 398 kts 233°
2026-05-04 16:49 41.63521 2.66677 35946 ft 402 kts 232°
2026-05-04 16:50 41.56620 2.54833 35932 ft 403 kts 232°
2026-05-04 16:51 41.51470 2.46027 35926 ft 400 kts 232°
2026-05-04 16:52 41.44627 2.34367 35924 ft 401 kts 232°
2026-05-04 16:53 41.39448 2.25564 35939 ft 404 kts 232°
2026-05-04 16:54 41.32691 2.13509 35908 ft 407 kts 239°
2026-05-04 16:55 41.29397 1.99238 35932 ft 406 kts 258°
2026-05-04 16:55 41.28634 1.92692 35930 ft 407 kts 257°
2026-05-04 16:56 41.26447 1.73897 35923 ft 412 kts 258°
2026-05-04 16:57 41.25127 1.62670 35918 ft 409 kts 258°
2026-05-04 16:58 41.23357 1.47725 35918 ft 411 kts 258°
2026-05-04 17:00 41.20637 1.25109 35915 ft 411 kts 257°
2026-05-04 17:01 41.18352 1.06412 35918 ft 412 kts 258°
2026-05-04 17:02 41.16495 0.91360 35909 ft 414 kts 258°
2026-05-04 17:03 41.15069 0.80067 35912 ft 414 kts 257°
2026-05-04 17:03 41.13656 0.68833 35912 ft 412 kts 257°
2026-05-04 17:04 41.11776 0.53924 35897 ft 408 kts 257°
2026-05-04 17:05 41.09859 0.39003 35907 ft 412 kts 257°
2026-05-04 17:06 41.08615 0.29410 35932 ft 413 kts 257°
2026-05-04 17:07 41.07473 0.20672 35931 ft 411 kts 257°
2026-05-04 17:07 41.06172 0.10768 35935 ft 409 kts 257°
2026-05-04 17:08 41.04864 0.00892 35937 ft 409 kts 257°
2026-05-04 17:09 41.03870 -0.06567 35937 ft 415 kts 257°
2026-05-04 17:09 41.02857 -0.14144 35940 ft 418 kts 257°
2026-05-04 17:10 40.99777 -0.32702 35950 ft 412 kts 248°
2026-05-04 17:11 40.97842 -0.39873 35950 ft 415 kts 249°
2026-05-04 17:12 40.94929 -0.50657 35951 ft 414 kts 249°
2026-05-04 17:13 40.90084 -0.68442 35929 ft 410 kts 249°
2026-05-04 17:14 40.86185 -0.82644 35931 ft 413 kts 249°
2026-05-04 17:15 40.83230 -0.93326 35944 ft 416 kts 249°
2026-05-04 17:16 40.79278 -1.07556 35952 ft 410 kts 249°
2026-05-04 17:16 40.76263 -1.18358 34552 ft 416 kts 249°
2026-05-04 17:17 40.75278 -1.21876 34013 ft 412 kts 249°
2026-05-04 17:17 40.72321 -1.32413 32367 ft 412 kts 249°
2026-05-04 17:18 40.71321 -1.35977 31826 ft 417 kts 249°
2026-05-04 17:18 40.69293 -1.43175 30720 ft 419 kts 249°
2026-05-04 17:19 40.67281 -1.50300 29582 ft 411 kts 249°
2026-05-04 17:19 40.65304 -1.57281 28511 ft 405 kts 249°
2026-05-04 17:20 40.63340 -1.64196 27451 ft 406 kts 249°
2026-05-04 17:20 40.61365 -1.71133 26388 ft 402 kts 250°
2026-05-04 17:20 40.60385 -1.74565 25859 ft 400 kts 250°
2026-05-04 17:21 40.58436 -1.81387 24815 ft 397 kts 250°
2026-05-04 17:21 40.56493 -1.88164 23770 ft 395 kts 250°
2026-05-04 17:22 40.55524 -1.91537 23211 ft 394 kts 250°
2026-05-04 17:22 40.54560 -1.94890 22687 ft 389 kts 250°
2026-05-04 17:23 40.51715 -2.04753 21164 ft 381 kts 250°
2026-05-04 17:23 40.50561 -2.07875 20720 ft 379 kts 241°
2026-05-04 17:23 40.47826 -2.13721 19971 ft 375 kts 240°
2026-05-04 17:24 40.46469 -2.16642 19583 ft 375 kts 240°
2026-05-04 17:24 40.42409 -2.25308 18456 ft 367 kts 240°
2026-05-04 17:25 40.41082 -2.28141 18071 ft 364 kts 240°
2026-05-04 17:25 40.38510 -2.33613 17336 ft 333 kts 240°
2026-05-04 17:26 40.36233 -2.38452 16701 ft 293 kts 240°
2026-05-04 17:26 40.33257 -2.44771 15880 ft 254 kts 240°
2026-05-04 17:27 40.31447 -2.48605 15389 ft 244 kts 240°
2026-05-04 17:27 40.29641 -2.52429 14896 ft 250 kts 240°
2026-05-04 17:28 40.27799 -2.56320 14390 ft 251 kts 240°
2026-05-04 17:29 40.26048 -2.62570 13644 ft 244 kts 265°
2026-05-04 17:29 40.26027 -2.69174 12934 ft 242 kts 268°
2026-05-04 17:30 40.26008 -2.75860 12234 ft 245 kts 268°
2026-05-04 17:31 40.25991 -2.80306 11763 ft 243 kts 268°
2026-05-04 17:31 40.25964 -2.86901 11069 ft 242 kts 268°
2026-05-04 17:32 40.25944 -2.91308 10606 ft 242 kts 268°
2026-05-04 17:33 40.25911 -2.97850 9917 ft 238 kts 268°
2026-05-04 17:33 40.25900 -3.00011 9678 ft 237 kts 268°
2026-05-04 17:34 40.25863 -3.06412 8992 ft 233 kts 268°
2026-05-04 17:34 40.25849 -3.08531 8767 ft 233 kts 268°
2026-05-04 17:35 40.25916 -3.14438 8028 ft 205 kts 278°
2026-05-04 17:35 40.26416 -3.18109 7572 ft 206 kts 277°
2026-05-04 17:35 40.26660 -3.19977 7360 ft 209 kts 277°
2026-05-04 17:36 40.26907 -3.21853 7164 ft 209 kts 277°
2026-05-04 17:36 40.27155 -3.23723 6961 ft 206 kts 278°
2026-05-04 17:36 40.27398 -3.25565 6725 ft 205 kts 278°
2026-05-04 17:36 40.27639 -3.27396 6492 ft 203 kts 278°
2026-05-04 17:37 40.27879 -3.29221 6295 ft 204 kts 278°
2026-05-04 17:37 40.28122 -3.31049 6095 ft 204 kts 279°
2026-05-04 17:37 40.28602 -3.32800 5858 ft 207 kts 295°
2026-05-04 17:37 40.29443 -3.34334 5646 ft 209 kts 308°
2026-05-04 17:38 40.30396 -3.35772 5446 ft 207 kts 307°
2026-05-04 17:38 40.31319 -3.37205 5241 ft 205 kts 307°
2026-05-04 17:38 40.32378 -3.38474 5024 ft 208 kts 320°
2026-05-04 17:38 40.33524 -3.39596 4944 ft 201 kts 317°
2026-05-04 17:39 40.35751 -3.41844 4773 ft 210 kts 318°
2026-05-04 17:39 40.36922 -3.43039 4500 ft 213 kts 318°
2026-05-04 17:39 40.38085 -3.44204 4207 ft 207 kts 319°
2026-05-04 17:40 40.39205 -3.45355 3931 ft 202 kts 319°
2026-05-04 17:40 40.40315 -3.46465 3669 ft 199 kts 320°
2026-05-04 17:40 40.41401 -3.47578 3416 ft 196 kts 319°
2026-05-04 17:40 40.42470 -3.48663 3137 ft 195 kts 318°
2026-05-04 17:41 40.43449 -3.49645 3163 ft 153 kts 318°
2026-05-04 17:41 40.44220 -3.50410 2848 ft 133 kts 316°
2026-05-04 17:41 40.44940 -3.51184 2549 ft 135 kts 318°
2026-05-04 17:41 40.45698 -3.51940 2316 ft 137 kts 319°
2026-05-04 17:42 40.46443 -3.52692 2133 ft 134 kts 319°
2026-05-04 17:42 40.47169 -3.53429 1987 ft 130 kts 321°
2026-05-04 17:42 40.47831 -3.54093 1943 ft 101 kts 321°
2026-05-04 17:42 40.48253 -3.54526 1951 ft 57 kts 322°
2026-05-04 17:43 40.48505 -3.54785 1958 ft 37 kts 322°
2026-05-04 17:43 40.48679 -3.54975 1964 ft 30 kts 319°
2026-05-04 17:43 40.48797 -3.55188 1973 ft 29 kts 292°
2026-05-04 17:43 40.48869 -3.55410 1969 ft 25 kts 299°
2026-05-04 17:44 40.48996 -3.55569 1972 ft 26 kts 323°
2026-05-04 17:44 40.49139 -3.55716 1979 ft 25 kts 320°
2026-05-04 17:44 40.49187 -3.55763 1979 ft 0 kts 324°
2026-05-04 17:46 40.49188 -3.55765 1979 ft 3 kts 324°
2026-05-04 17:46 40.49247 -3.55818 1978 ft 18 kts 324°
2026-05-04 17:47 40.49302 -3.55952 1979 ft 18 kts 271°
2026-05-04 17:47 40.49300 -3.56133 1975 ft 21 kts 268°
2026-05-04 17:47 40.49237 -3.56248 1967 ft 17 kts 184°
2026-05-04 17:47 40.49097 -3.56247 1964 ft 24 kts 181°
2026-05-04 17:48 40.48907 -3.56253 1959 ft 30 kts 179°
2026-05-04 17:48 40.48778 -3.56284 1957 ft 16 kts 243°
2026-05-04 17:48 40.48770 -3.56453 1954 ft 22 kts 270°
2026-05-04 17:48 40.48771 -3.56687 1952 ft 29 kts 269°
2026-05-04 17:49 40.48769 -3.56979 1950 ft 35 kts 269°
2026-05-04 17:49 40.48769 -3.57285 1951 ft 31 kts 271°
2026-05-04 17:49 40.48767 -3.57561 1955 ft 30 kts 269°
2026-05-04 17:49 40.48766 -3.57829 1958 ft 24 kts 269°
2026-05-04 17:50 40.48708 -3.57933 1963 ft 15 kts 181°
2026-05-04 17:50 40.48598 -3.57924 1972 ft 19 kts 165°
2026-05-04 17:50 40.48442 -3.57814 1980 ft 29 kts 150°
2026-05-04 17:50 40.48270 -3.57649 1982 ft 33 kts 142°
2026-05-04 17:51 40.48081 -3.57453 1976 ft 36 kts 141°
2026-05-04 17:51 40.47873 -3.57247 1973 ft 39 kts 141°
2026-05-04 17:51 40.47654 -3.57024 1967 ft 41 kts 142°
2026-05-04 17:51 40.47428 -3.56795 1962 ft 42 kts 141°
2026-05-04 17:52 40.47216 -3.56576 1957 ft 34 kts 142°
2026-05-04 17:52 40.47001 -3.56446 1953 ft 35 kts 175°
2026-05-04 17:52 40.46807 -3.56462 1950 ft 26 kts 184°
2026-05-04 17:52 40.46623 -3.56473 1947 ft 28 kts 182°
2026-05-04 17:53 40.46416 -3.56487 1944 ft 32 kts 185°
2026-05-04 17:53 40.46303 -3.56529 1942 ft 13 kts 238°
2026-05-04 17:53 40.46297 -3.56662 1943 ft 16 kts 269°
2026-05-04 17:53 40.46283 -3.56763 1943 ft 18 kts 242°
2026-05-04 17:54 40.46190 -3.56863 1942 ft 18 kts 216°
2026-05-04 17:54 40.46101 -3.56995 1941 ft 21 kts 230°
2026-05-04 17:54 40.46036 -3.57101 1940 ft 15 kts 216°
2026-05-04 17:54 40.45974 -3.57175 1940 ft 12 kts 224°
2026-05-04 17:55 40.45902 -3.57270 1939 ft 17 kts 224°
2026-05-04 17:55 40.45851 -3.57336 1939 ft 8 kts 225°
2026-05-04 17:55 40.45850 -3.57338 1939 ft 0 kts 225°